ROMMA est une association bénévole à but non lucratif. Votre soutien est indispensable : ADHERER à ROMMA ou FAIRE un DON

Crest - (26, Drôme)

Vallée de la Drôme (315 m)   Longitude: 5°2' E   Latitude: 44°44' N Station partenaire n°62
 

Détail journalier du     <<     >>

Température Precipitation Humidité Pression Vent Dir Rafale Dir. rafale Ensol.
Heure (°C) (mm) (%) (hPa) (km/h) (km/h) (min)
01:00 7.1075102814SSO24SSO0
02:00 6.6078102814SSO26SSO0
03:00 7.3075102814SO24SO0
04:00 7.507410289SSO19SSO0
05:00 5.908310276SSO16SSO0
06:00 7.307510268SSO18SO0
07:00 4.908410263ENE13SO0
08:00 5.108710262NNO5NNE0
09:00 5.808310262SSO8SSO0
10:00 6.00.38710261SSE5SSE0
11:00 6.419110262SSE8SE0
12:00 7.80.39110261SSE3SSE0
13:00 9.20.38810263---15SO2
14:00 8.9085102610NE27SSO2
15:00 9.8082102511SSO29NNO23
16:00 8.8085102613SSO26SO25
17:00 8.6079102712SO23SO16
18:00 8.4083102712SO24NE0
19:00 8.4079102816NNE35ENE0
20:00 7.8081102814SO34SO0
21:00 8.1080102915SO40NNE0
22:00 7.808310296SSO19NNE0
23:00 7.808210309SSO27SO0
minuit 7.608210307SSO18NE0

Graphique du 27-12-2019

 

Serveur OMMA